User: anonymous   Login
Location: Lake Runnemede Observatory
(43.4843°N, 72.3851°W)
Time: 14:58:25
(UTC-04:00)
Language:

SPOT 5 - Orbit

View from above orbital plane
View from above orbital plane
View from above satellite
View from above satellite

Ground track
Ground track

The orbit data is extracted from the following two-line orbital elements,

1 27421U 02021A   16178.38621848  .00000010  00000-0  14305-4 0  9992
2 27421  98.4557 234.2810 0135101 337.5708  21.9616 14.51804142734043
Epoch (UTC): 26 June 2016 09:16:09
Eccentricity: 0.0135101
inclination: 98.4557°
perigee height: 624 km
apogee height: 815 km
right ascension of ascending node: 234.2810°
argument of perigee: 337.5708°
revolutions per day: 14.51804142
mean anomaly at epoch: 21.9616°
orbit number at epoch: 73404

The dashed part of the orbit path shows where the satellite is in the earth's shadow,  

DLR